Location: Gallinara
(44.0333°N, 8.2333°E)
Time: 01:42:05
(UTC+00:00)

ARIANE 5 R/B - Pass Details

Date: 25 September 2020
Orbit: 748 x 796 km, 98.6° (Epoch: 31 October)

Event Time Altitude Azimuth Distance (km) Brightness Sun altitude
Rises 03:23:37 0° 4° (N) 3,247 6.1 -21.0°
Reaches altitude 10° 03:26:12 10° 353° (N) 2,308 5.1 -20.6°
Enters shadow 03:30:25 29° 297° (WNW) 1,378 3.4 -19.8°
